Location: Peebles
(55.6412°N, 3.1714°W)
Time: 14:34:13
(UTC+01:00)

USA 307 - Pass Details

Date: 26 September 2021
Orbit: 555 x 584 km, 54.0° (Epoch: 27 September)

Event Time Altitude Azimuth Distance (km) Brightness Sun altitude
Rises 21:41:59 0° 283° (WNW) 2,760 7.6 -22.5°
Reaches altitude 10° 21:44:24 10° 273° (W) 1,866 6.3 -22.7°
Enters shadow 21:48:04 30° 213° (SSW) 1,041 4.1 -23.2°
